This demonstration page uses our WeatherBlox Daily Observations layout. Learn more.

Hourly Observations for May 19, 2016

Temp ( °F °C ) Dew Point ( °F °C ) Humidity (%) Winds ( mph kmh ) Pressure ( in mb ) Visibility ( mi km ) Precip ( " mm )
12:15 am 00:15 Clear 52 11.2 45 7 76 76 S 8 13 30.12 1020 10 16.0934 0 0
12:35 am 00:35 Clear 52 11.3 44 6.7 74 74 S 9 15 30.12 1020 10 16.0934 0 0
12:55 am 00:55 Clear 52 11.1 44 6.6 74 74 S 8 13 30.12 1020 10 16.0934 0 0
1:15 am 01:15 Clear 51 10.8 44 6.6 76 76 S 9 15 30.12 1020 10 16.0934 0 0
1:35 am 01:35 Clear 51 10.7 44 6.5 75 75 S 9 15 30.12 1020 10 16.0934 0 0
1:55 am 01:55 Clear 51 10.7 43 6.3 74 74 S 10 17 30.12 1020 10 16.0934 0 0
2:15 am 02:15 Clear 51 10.3 43 6.1 75 75 S 8 13 30.09 1019 10 16.0934 0 0
2:35 am 02:35 Clear 50 10 43 6.1 77 77 S 9 15 30.12 1020 10 16.0934 0 0
2:55 am 02:55 Clear 50 9.8 43 6 77 77 S 8 13 30.12 1020 10 16.0934 0 0
3:15 am 03:15 Clear 49 9.5 43 6 79 79 S 8 13 30.12 1020 10 16.0934 0 0
3:35 am 03:35 Clear 48 8.8 43 5.9 82 82 S 7 11 30.12 1020 10 16.0934 0 0
3:55 am 03:55 Clear 47 8.6 42 5.7 82 82 S 5 7 30.12 1020 10 16.0934 0 0
4:15 am 04:15 Clear 47 8.4 42 5.7 83 83 S 6 9 30.09 1019 10 16.0934 0 0
4:35 am 04:35 Clear 46 8 43 5.9 87 87 S 7 11 30.09 1019 10 16.0934 0 0
4:55 am 04:55 Clear 47 8.4 43 6 85 85 S 6 9 30.09 1019 10 16.0934 0 0
5:15 am 05:15 Clear 46 7.6 42 5.6 87 87 S 5 7 30.09 1019 10 16.0934 0 0
5:35 am 05:35 Clear 46 7.9 42 5.8 87 87 S 5 7 30.09 1019 10 16.0934 0 0
5:55 am 05:55 Clear 45 7.2 42 5.5 89 89 S 3 6 30.09 1019 10 16.0934 0 0
6:15 am 06:15 Clear 45 7.1 42 5.5 90 90 S 5 7 30.09 1019 10 16.0934 0 0
6:35 am 06:35 Sunny 45 7.1 42 5.6 90 90 S 3 6 30.09 1019 10 16.0934 0 0
6:55 am 06:55 Sunny 46 7.8 43 6.1 89 89 S 5 7 30.09 1019 10 16.0934 0 0
7:15 am 07:15 Sunny 47 8.5 44 6.7 89 89 S 6 9 30.12 1020 10 16.0934 0 0
7:35 am 07:35 Sunny 49 9.4 45 7.3 87 87 S 8 13 30.12 1020 10 16.0934 0 0
7:55 am 07:55 Sunny 51 10.3 46 7.9 85 85 S 9 15 30.09 1019 10 16.0934 0 0
8:15 am 08:15 Sunny 53 11.4 47 8.1 80 80 S 10 17 30.09 1019 10 16.0934 0 0
8:35 am 08:35 Sunny 54 12.4 47 8.1 75 75 S 13 20 30.06 1018 10 16.0934 0 0
8:55 am 08:55 Sunny 56 13.5 47 8.3 71 71 S 13 20 30.03 1017 10 16.0934 0 0
9:15 am 09:15 Sunny 57 14.1 47 8.2 68 68 S 15 24 30.03 1017 10 16.0934 0 0
9:35 am 09:35 Sunny 58 14.6 46 7.9 64 64 S 14 22 30.03 1017 10 16.0934 0 0
9:55 am 09:55 Sunny 59 15.2 46 7.7 61 61 S 15 24 30.03 1017 10 16.0934 0 0
10:15 am 10:15 Sunny 60 15.6 45 7.2 58 58 S 17 28 30.03 1017 10 16.0934 0 0
10:35 am 10:35 Sunny 61 16 45 7 55 55 S 17 28 30.03 1017 10 16.0934 0 0
10:55 am 10:55 Sunny 61 15.9 44 6.6 54 54 S 17 28 30.03 1017 10 16.0934 0 0
11:15 am 11:15 Sunny 61 16.2 43 6.1 51 51 S 17 28 30.03 1017 10 16.0934 0 0
11:35 am 11:35 Partly Cloudy 62 16.8 44 6.4 51 51 S 18 30 30 1016 10 16.0934 0 0
11:55 am 11:55 Partly Cloudy 63 17 44 6.4 50 50 SSE 20 31 29.97 1015 10 16.0934 0 0
12:15 pm 12:15 Partly Cloudy 63 17.1 42 5.8 48 48 S 17 28 29.97 1015 10 16.0934 0 0
12:35 pm 12:35 Sunny 64 17.5 43 6 47 47 S 18 30 29.97 1015 10 16.0934 0 0
12:55 pm 12:55 Partly Cloudy 64 17.5 44 6.4 48 48 S 20 31 29.97 1015 10 16.0934 0 0
1:15 pm 13:15 Mostly Cloudy 62 16.4 42 5.3 48 48 S 21 33 29.97 1015 10 16.0934 0 0
1:35 pm 13:35 Cloudy 62 16.5 41 5.2 47 47 S 18 30 29.97 1015 10 16.0934 0 0
1:55 pm 13:55 Cloudy 61 16.1 43 6.2 52 52 S 24 39 30 1016 10 16.0934 0 0
2:15 pm 14:15 Cloudy 60 15.6 43 6 53 53 S 22 35 30 1016 10 16.0934 0 0
2:35 pm 14:35 Cloudy 59 15.2 44 6.4 56 56 S 22 35 29.97 1015 10 16.0934 0 0
2:55 pm 14:55 Cloudy 59 15 44 6.6 57 57 S 20 31 29.97 1015 10 16.0934 0 0
3:15 pm 15:15 Cloudy 59 15 44 6.9 59 59 SSE 17 28 29.97 1015 10 16.0934 0 0
3:35 pm 15:35 Cloudy 60 15.4 44 6.6 56 56 SSE 14 22 29.97 1015 10 16.0934 0 0
3:55 pm 15:55 Cloudy 60 15.7 44 6.6 55 55 S 21 33 29.97 1015 10 16.0934 0 0
4:15 pm 16:15 Cloudy 58 14.6 43 6.3 58 58 S 12 19 29.97 1015 10 16.0934 0 0
4:35 pm 16:35 Cloudy 59 15 44 6.7 58 58 S 16 26 29.94 1014 10 16.0934 0 0
4:55 pm 16:55 Cloudy 60 15.4 45 7 58 58 S 17 28 29.94 1014 10 16.0934 0 0
5:15 pm 17:15 Cloudy 59 15.1 44 6.8 58 58 S 22 35 29.94 1014 10 16.0934 0 0
5:35 pm 17:35 Cloudy 58 14.7 45 7.2 61 61 S 21 33 29.94 1014 10 16.0934 0 0
5:55 pm 17:55 Cloudy 59 15 46 7.8 62 62 SSE 20 31 29.94 1014 10 16.0934 0 0
6:15 pm 18:15 Cloudy 60 15.5 44 6.7 56 56 S 20 31 29.94 1014 10 16.0934 0 0
6:35 pm 18:35 Cloudy 59 15.1 46 7.9 62 62 S 20 31 29.94 1014 10 16.0934 0 0
6:55 pm 18:55 Cloudy 59 15 45 7.2 60 60 S 17 28 29.94 1014 10 16.0934 0 0
7:15 pm 19:15 Cloudy 58 14.6 44 6.6 59 59 SSE 17 28 29.94 1014 10 16.0934 0 0
7:35 pm 19:35 Cloudy 57 14 44 6.6 61 61 SSE 15 24 29.94 1014 10 16.0934 0 0
7:55 pm 19:55 Cloudy 56 13.5 45 7.1 65 65 SSE 15 24 29.94 1014 10 16.0934 0 0
8:15 pm 20:15 Cloudy 55 13 45 7.2 68 68 SSE 14 22 29.94 1014 10 16.0934 0 0
8:35 pm 20:35 Cloudy 55 12.8 45 7 68 68 SSE 15 24 29.94 1014 10 16.0934 0 0
8:55 pm 20:55 Cloudy 55 12.5 44 6.7 68 68 SSE 10 17 29.94 1014 10 16.0934 0 0
9:15 pm 21:15 Cloudy 54 12.2 45 7 71 71 SSE 10 17 29.97 1015 10 16.0934 0 0
9:35 pm 21:35 Cloudy 54 12.1 45 7.1 72 72 SSE 14 22 29.97 1015 10 16.0934 0 0
9:55 pm 21:55 Cloudy 53 11.5 45 7 74 74 SSE 12 19 29.97 1015 10 16.0934 0 0
10:15 pm 22:15 Partly Cloudy 51 10.6 45 7.3 80 80 SSE 12 19 29.97 1015 10 16.0934 0 0
10:35 pm 22:35 Clear 50 10.1 46 7.5 84 84 SSE 9 15 30 1016 10 16.0934 0 0
10:55 pm 22:55 Clear 49 9.5 46 7.6 88 88 SE 10 17 30 1016 10 16.0934 0 0
11:15 pm 23:15 Clear 49 9.5 46 7.8 89 89 SSE 13 20 30 1016 10 16.0934 0 0
11:35 pm 23:35 Clear 48 9 46 7.5 90 90 SE 10 17 29.97 1015 10 16.0934 0 0
11:55 pm 23:55 Clear 48 8.7 46 7.5 92 92 SSE 9 15 30.03 1017 10 16.0934 0 0

Powered by AerisWeather